Location: Clermont
(50.2608°N, 4.3172°E)
Time: 06:03:35
(UTC+00:00)

FALCON 9 DEB - Pass Details

Date: 13 August 2020
Orbit: 427 x 441 km, 53.0° (Epoch: 23 September)

Event Time Altitude Azimuth Distance (km) Brightness Sun altitude
Rises 20:49:16 0° 260° (W) 2,428 7.4 -14.6°
Reaches altitude 10° 20:51:24 10° 264° (W) 1,560 6.5 -14.8°
Maximum altitude 20:54:53 65° 346° (NNW) 492 3.5 -15.2°
Drops below altitude 10° 20:58:23 10° 70° (ENE) 1,563 5.7 -15.6°
Enters shadow 20:58:33 - 70° (ENE) 1,634 5.8 -15.6°
